Location: Zilina
(0.0000°N, 18.7333°E)
Time: 08:31:53
(UTC+01:00)

MOS 1 - Visible Passes

Search period start: 15 November 2019 00:00
Search period end: 25 November 2019 00:00
Orbit: 878 x 891 km, 99.2° (Epoch: 14 November)

Date Brightness Start Highest point End Pass type
(mag) Time Alt. Az. Time Alt. Az. Time Alt. Az.
15 Nov 6.3 19:19:34 10° SSE 19:20:15 13° SSE 19:20:15 13° SSE visible
16 Nov 6.3 19:17:49 10° SSE 19:18:32 14° SE 19:18:32 14° SE visible
17 Nov 6.3 19:16:04 10° SSE 19:16:49 14° SE 19:16:49 14° SE visible
18 Nov 6.3 19:14:20 10° SE 19:15:05 14° SE 19:15:05 14° SE visible
18 Nov 7.1 20:57:41 10° SW 20:57:49 10° SW 20:57:49 10° SW visible
19 Nov 6.2 19:12:36 10° SE 19:13:22 14° SE 19:13:22 14° SE visible
19 Nov 7.1 20:55:42 10° SW 20:56:06 11° SW 20:56:06 11° SW visible
20 Nov 6.2 19:10:52 10° SE 19:11:39 14° SE 19:11:39 14° SE visible
20 Nov 7.0 20:53:42 10° SW 20:54:23 12° SW 20:54:23 12° SW visible
21 Nov 6.2 19:09:08 10° SE 19:09:56 14° SE 19:09:56 14° SE visible
21 Nov 7.0 20:51:45 10° SW 20:52:39 13° SW 20:52:39 13° SW visible
22 Nov 6.2 19:07:25 10° SE 19:08:12 14° SE 19:08:12 14° SE visible
22 Nov 6.9 20:49:48 10° SW 20:50:56 14° SW 20:50:56 14° SW visible
23 Nov 6.2 19:05:42 10° SE 19:06:29 14° SE 19:06:29 14° SE visible
23 Nov 6.9 20:47:52 10° SSW 20:49:13 14° SW 20:49:13 14° SW visible
24 Nov 6.2 19:03:59 10° SE 19:04:46 14° SE 19:04:46 14° SE visible
24 Nov 6.8 20:45:56 10° SSW 20:47:29 15° SW 20:47:29 15° SW visible
